Find Geely Xingzuo 02 zu 09 xing

NORAD ID: 58913 Int'l Des: 2024-023 Owner: GEESP Country: CN Constellation: geesatcom operational
LEOCIRCULAR

当前视图

正在加载3D地球...

关于 Geely Xingzuo 02 zu 09 xing

正在加载描述...

即将过境

Passes for default location (London). Set your location on the main map for personalized predictions.

高度历史

Loading altitude history...

两行轨道根数

1 58913U 24023J 26151.30689772 .00002495 00000-0 32899-3 0 9998
2 58913 50.0032 72.3363 0022126 303.1892 56.6924 14.83171873126410
Epoch: May 31, 2026 • Age: 12 hours

当前状态

高度 627.9 km
速度 7.54 km/s
星下点 -6.44°S, 73.1°E
发射日期 Feb 2, 2024
运行时间 2.3 years
类型 other

技术详情

分类 Payload
质量 130.00 kg
干质量 130.00 kg
总质量 130.00 kg
长度 1.00 m
直径 0.50 m
跨度 2.00 m
形状 Box + 2 pan
制造商 GWCG
平台类型 GPS100
阶段状态 In Orbit
所有者/国家 GEESP/CN

Most Searched